| time (UTC) | temp F | wind direction | speed MPH | gust MPH | rain 1hr in | rain 24hr in | rain mn in | humidity % | barometer mb |
| 20260507041350 | 59 | 100 | 0.0 | 0.0 | 0.00 | 0.29 | 0.29 | 97 | 1010.2 |
| 20260507040816 | 59 | 100 | 0.0 | 0.0 | 0.00 | 0.29 | 0.29 | 97 | 1010.0 |
| 20260507040242 | 59 | 100 | 0.0 | 0.0 | 0.00 | 0.29 | 0.29 | 96 | 1010.1 |
| 20260507035707 | 59 | 100 | 0.0 | 0.0 | 0.00 | 0.29 | 0.29 | 95 | 1009.8 |
| 20260507035133 | 60 | 100 | 0.0 | 0.0 | 0.00 | 0.29 | 0.29 | 95 | 1009.9 |
| 20260507034559 | 60 | 100 | 0.0 | 0.0 | 0.00 | 0.29 | 0.29 | 96 | 1009.8 |
| 20260507030713 | 62 | 302 | 0.0 | 0.0 | 0.00 | 0.29 | 0.29 | 90 | 1009.8 |
| 20260507030139 | 62 | 302 | 0.0 | 0.0 | 0.00 | 0.29 | 0.29 | 90 | 1009.5 |
| 20260507025605 | 62 | 339 | 0.0 | 0.0 | 0.00 | 0.29 | 0.29 | 91 | 1008.9 |
| 20260507025031 | 62 | 339 | 0.0 | 0.0 | 0.00 | 0.29 | 0.29 | 91 | 1008.9 |
| 20260507023927 | 63 | 320 | 1.0 | 0.0 | 0.00 | 0.29 | 0.29 | 92 | 1009.5 |
| 20260507023353 | 63 | 15 | 1.0 | 0.0 | 0.00 | 0.29 | 0.29 | 94 | 1009.4 |
| 20260507022819 | 63 | 15 | 1.0 | 0.0 | 0.00 | 0.29 | 0.29 | 94 | 1009.2 |
| 20260507022245 | 64 | 15 | 1.0 | 0.0 | 0.00 | 0.29 | 0.29 | 95 | 1009.1 |
| 20260507021711 | 64 | 51 | 0.0 | 0.0 | 0.00 | 0.29 | 0.29 | 96 | 1008.8 |
| 20260507020607 | 64 | 80 | 0.0 | 0.0 | 0.00 | 0.29 | 0.29 | 97 | 1008.9 |
| 20260507020033 | 65 | 79 | 0.0 | 0.0 | 0.00 | 0.29 | 0.29 | 97 | 1008.8 |
| 20260507014929 | 65 | 71 | 0.0 | 0.0 | 0.00 | 0.29 | 0.29 | 97 | 1008.6 |
| 20260507014355 | 65 | 71 | 0.0 | 0.0 | 0.00 | 0.29 | 0.29 | 97 | 1008.7 |
| 20260507013821 | 65 | 71 | 0.0 | 0.0 | 0.00 | 0.29 | 0.29 | 97 | 1008.3 |
| 20260507013247 | 65 | 71 | 0.0 | 0.0 | 0.00 | 0.29 | 0.29 | 97 | 1008.7 |
| 20260507012713 | 65 | 72 | 0.0 | 0.0 | 0.00 | 0.29 | 0.29 | 99 | 1008.9 |
| 20260507011608 | 65 | 71 | 0.0 | 0.0 | 0.00 | 0.29 | 0.29 | 10 | 1009.1 |
| 20260507005934 | 65 | 71 | 0.0 | 0.0 | 0.00 | 0.29 | 0.29 | 10 | 1008.9 |
| 20260507004831 | 66 | 71 | 0.0 | 0.0 | 0.00 | 0.29 | 0.29 | 10 | 1008.6 |
| 20260507003156 | 66 | 72 | 0.0 | 0.0 | 0.00 | 0.29 | 0.29 | 10 | 1008.6 |
| 20260507002622 | 66 | 71 | 0.0 | 0.0 | 0.00 | 0.29 | 0.29 | 10 | 1008.3 |
| 20260507002048 | 66 | 72 | 0.0 | 0.0 | 0.00 | 0.29 | 0.29 | 99 | 1008.3 |
| 20260507001514 | 67 | 71 | 0.0 | 0.0 | 0.00 | 0.29 | 0.29 | 98 | 1008.3 |
| 20260507000412 | 67 | 71 | 0.0 | 0.0 | 0.00 | 0.29 | 0.29 | 98 | 1008.1 |
| 20260506235307 | 67 | 71 | 0.0 | 0.0 | 0.00 | 0.29 | 0.29 | 97 | 1008.1 |
| 20260506234732 | 67 | 72 | 0.0 | 0.0 | 0.00 | 0.29 | 0.29 | 96 | 1008.1 |
| 20260506233058 | 67 | 71 | 0.0 | 0.0 | 0.00 | 0.29 | 0.29 | 96 | 1007.8 |
| 20260506232524 | 67 | 71 | 0.0 | 0.0 | 0.00 | 0.29 | 0.29 | 96 | 1007.7 |
| 20260506231950 | 67 | 71 | 0.0 | 0.0 | 0.00 | 0.29 | 0.29 | 95 | 1007.6 |
| 20260506231416 | 67 | 237 | 0.0 | 0.0 | 0.00 | 0.29 | 0.29 | 95 | 1007.6 |
| 20260506230842 | 67 | 237 | 0.0 | 0.0 | 0.00 | 0.29 | 0.29 | 95 | 1007.5 |
| 20260506225208 | 68 | 164 | 0.0 | 0.0 | 0.00 | 0.29 | 0.29 | 95 | 1007.5 |
| 20260506224103 | 68 | 164 | 0.0 | 0.0 | 0.00 | 0.29 | 0.29 | 94 | 1007.3 |
| 20260506223529 | 68 | 164 | 0.0 | 0.0 | 0.00 | 0.29 | 0.29 | 94 | 1007.3 |
| 20260506222955 | 68 | 163 | 2.0 | 0.0 | 0.00 | 0.29 | 0.29 | 94 | 1007.3 |
| 20260506222421 | 68 | 204 | 0.0 | 0.0 | 0.00 | 0.29 | 0.29 | 94 | 1007.5 |
| 20260506221847 | 68 | 186 | 1.0 | 0.0 | 0.00 | 0.29 | 0.29 | 94 | 1007.3 |
| 20260506220743 | 68 | 183 | 2.0 | 0.0 | 0.00 | 0.29 | 0.29 | 94 | 1007.3 |
| 20260506220209 | 68 | 256 | 1.0 | 0.0 | 0.00 | 0.29 | 0.29 | 94 | 1007.3 |
| 20260506215635 | 68 | 271 | 1.0 | 0.0 | 0.00 | 0.29 | 0.29 | 94 | 1007.3 |
| 20260506215101 | 68 | 218 | 1.0 | 0.0 | 0.00 | 0.29 | 0.29 | 94 | 1007.3 |
| 20260506214527 | 68 | 209 | 2.0 | 0.0 | 0.00 | 0.29 | 0.29 | 94 | 1007.4 |
| 20260506213953 | 68 | 178 | 1.0 | 0.0 | 0.00 | 0.29 | 0.29 | 94 | 1007.3 |
| 20260506213419 | 68 | 266 | 0.0 | 0.0 | 0.00 | 0.29 | 0.29 | 94 | 1007.3 |
| 20260506212315 | 68 | 260 | 1.0 | 0.0 | 0.00 | 0.29 | 0.29 | 94 | 1007.3 |
| 20260506211741 | 68 | 223 | 2.0 | 0.0 | 0.00 | 0.29 | 0.29 | 94 | 1007.3 |
| 20260506210637 | 68 | 187 | 0.0 | 0.0 | 0.00 | 0.29 | 0.29 | 94 | 1007.2 |
| 20260506205533 | 68 | 272 | 2.0 | 0.0 | 0.00 | 0.29 | 0.29 | 94 | 1007.1 |
| 20260506204959 | 68 | 224 | 1.0 | 0.0 | 0.00 | 0.29 | 0.29 | 94 | 1006.9 |
| 20260506203324 | 67 | 247 | 0.0 | 0.0 | 0.00 | 0.29 | 0.29 | 95 | 1007.0 |
| 20260506202751 | 67 | 187 | 1.0 | 0.0 | 0.00 | 0.29 | 0.29 | 94 | 1006.9 |
| 20260506202217 | 67 | 182 | 0.0 | 0.0 | 0.00 | 0.29 | 0.29 | 95 | 1006.8 |
| 20260506201643 | 67 | 285 | 1.0 | 0.0 | 0.00 | 0.29 | 0.29 | 95 | 1007.0 |
| 20260506200538 | 67 | 133 | 2.0 | 0.0 | 0.00 | 0.29 | 0.29 | 95 | 1007.0 |
| 20260506200004 | 67 | 239 | 2.0 | 0.0 | 0.00 | 0.29 | 0.29 | 95 | 1007.1 |
| 20260506195430 | 66 | 225 | 1.0 | 0.0 | 0.00 | 0.29 | 0.29 | 95 | 1007.0 |
| 20260506194856 | 66 | 175 | 2.0 | 0.0 | 0.00 | 0.29 | 0.29 | 95 | 1006.9 |
| 20260506193752 | 66 | 184 | 3.0 | 0.0 | 0.00 | 0.29 | 0.29 | 95 | 1007.1 |
| 20260506193218 | 66 | 238 | 3.0 | 0.0 | 0.00 | 0.29 | 0.29 | 95 | 1007.1 |
| 20260506192644 | 66 | 179 | 2.0 | 0.0 | 0.00 | 0.29 | 0.29 | 95 | 1007.1 |
| 20260506192110 | 66 | 237 | 2.0 | 0.0 | 0.00 | 0.29 | 0.29 | 95 | 1007.1 |
| 20260506191006 | 66 | 251 | 3.0 | 0.0 | 0.00 | 0.29 | 0.29 | 95 | 1007.0 |
| 20260506190432 | 66 | 143 | 2.0 | 0.0 | 0.00 | 0.29 | 0.29 | 96 | 1007.3 |
| 20260506185328 | 65 | 206 | 3.0 | 0.0 | 0.00 | 0.29 | 0.29 | 97 | 1007.2 |
| 20260506184754 | 65 | 204 | 2.0 | 0.0 | 0.00 | 0.29 | 0.29 | 97 | 1007.4 |
| 20260506184220 | 65 | 184 | 1.0 | 0.0 | 0.00 | 0.29 | 0.29 | 98 | 1007.6 |
| 20260506182545 | 64 | 245 | 2.0 | 0.0 | 0.00 | 0.29 | 0.29 | 97 | 1007.6 |
| 20260506181442 | 64 | 181 | 3.0 | 0.0 | 0.00 | 0.29 | 0.29 | 97 | 1007.7 |
| 20260506180907 | 64 | 191 | 1.0 | 0.0 | 0.00 | 0.29 | 0.29 | 98 | 1007.7 |
| 20260506175803 | 64 | 171 | 1.0 | 0.0 | 0.00 | 0.29 | 0.29 | 98 | 1007.8 |
| 20260506174659 | 64 | 260 | 4.0 | 0.0 | 0.00 | 0.29 | 0.29 | 99 | 1007.8 |
| 20260506173555 | 63 | 161 | 2.0 | 0.0 | 0.00 | 0.29 | 0.29 | 10 | 1008.1 |
| 20260506173021 | 63 | 287 | 2.0 | 0.0 | 0.00 | 0.29 | 0.29 | 10 | 1008.1 |
| 20260506170817 | 62 | 191 | 2.0 | 0.0 | 0.00 | 0.29 | 0.29 | 10 | 1008.2 |
| 20260506170243 | 62 | 207 | 2.0 | 0.0 | 0.00 | 0.29 | 0.29 | 10 | 1008.1 |
| 20260506165139 | 62 | 220 | 3.0 | 0.0 | 0.00 | 0.29 | 0.29 | 10 | 1008.2 |
| 20260506164605 | 62 | 123 | 3.0 | 0.0 | 0.00 | 0.29 | 0.29 | 10 | 1008.0 |
| 20260506164031 | 62 | 181 | 2.0 | 0.0 | 0.00 | 0.29 | 0.29 | 10 | 1008.1 |
| 20260506163457 | 62 | 167 | 3.0 | 1.0 | 0.00 | 0.29 | 0.29 | 10 | 1008.2 |
| 20260506162923 | 62 | 235 | 4.0 | 1.0 | 0.00 | 0.29 | 0.29 | 10 | 1008.1 |
| 20260506162349 | 61 | 245 | 2.0 | 0.0 | 0.00 | 0.29 | 0.29 | 10 | 1008.1 |
| 20260506161245 | 61 | 242 | 3.0 | 0.0 | 0.01 | 0.29 | 0.29 | 10 | 1008.2 |
| 20260506160711 | 61 | 241 | 2.0 | 0.0 | 0.01 | 0.29 | 0.29 | 10 | 1008.4 |
| 20260506160136 | 61 | 224 | 3.0 | 0.0 | 0.02 | 0.29 | 0.29 | 10 | 1008.4 |
| 20260506155602 | 60 | 155 | 2.0 | 0.0 | 0.03 | 0.29 | 0.29 | 10 | 1008.2 |
| 20260506155028 | 60 | 187 | 4.0 | 1.0 | 0.04 | 0.29 | 0.29 | 10 | 1008.3 |
| 20260506154454 | 60 | 170 | 4.0 | 1.0 | 0.05 | 0.29 | 0.29 | 10 | 1008.4 |
| 20260506153920 | 60 | 186 | 3.0 | 0.0 | 0.06 | 0.29 | 0.29 | 10 | 1008.4 |
| 20260506153347 | 60 | 208 | 2.0 | 0.0 | 0.06 | 0.29 | 0.29 | 10 | 1008.6 |
| 20260506152812 | 60 | 233 | 2.0 | 0.0 | 0.07 | 0.29 | 0.29 | 10 | 1008.9 |
| 20260506152239 | 60 | 174 | 3.0 | 0.0 | 0.07 | 0.29 | 0.29 | 10 | 1008.7 |
| 20260506151704 | 59 | 190 | 2.0 | 0.0 | 0.07 | 0.29 | 0.29 | 10 | 1008.6 |
| 20260506150600 | 59 | 163 | 3.0 | 0.0 | 0.07 | 0.28 | 0.28 | 10 | 1008.9 |
| 20260506150026 | 59 | 227 | 2.0 | 0.0 | 0.06 | 0.27 | 0.27 | 10 | 1009.1 |
| 20260506144352 | 59 | 153 | 2.0 | 0.0 | 0.07 | 0.24 | 0.24 | 10 | 1009.2 |
| 20260506143818 | 59 | 214 | 2.0 | 0.0 | 0.08 | 0.23 | 0.23 | 10 | 1009.2 |
| 20260506143244 | 59 | 165 | 2.0 | 0.0 | 0.10 | 0.23 | 0.23 | 10 | 1009.3 |
| 20260506142140 | 59 | 170 | 2.0 | 0.0 | 0.12 | 0.22 | 0.22 | 10 | 1009.2 |
| 20260506141606 | 59 | 194 | 2.0 | 0.0 | 0.13 | 0.22 | 0.22 | 10 | 1009.2 |
| 20260506141032 | 59 | 196 | 1.0 | 0.0 | 0.16 | 0.21 | 0.21 | 10 | 1009.3 |
| 20260506140457 | 59 | 190 | 1.0 | 0.0 | 0.18 | 0.21 | 0.21 | 10 | 1009.5 |
| 20260506135924 | 59 | 167 | 2.0 | 0.0 | 0.17 | 0.20 | 0.20 | 10 | 1009.2 |
| 20260506134819 | 59 | 193 | 1.0 | 0.0 | 0.16 | 0.19 | 0.19 | 10 | 1009.2 |
| 20260506134245 | 59 | 173 | 2.0 | 0.0 | 0.13 | 0.16 | 0.16 | 10 | 1009.3 |
| 20260506133711 | 60 | 162 | 1.0 | 0.0 | 0.11 | 0.14 | 0.14 | 10 | 1009.3 |
| 20260506130937 | 60 | 193 | 1.0 | 0.0 | 0.04 | 0.05 | 0.05 | 10 | 1009.8 |
| 20260506130403 | 60 | 166 | 0.0 | 0.0 | 0.03 | 0.03 | 0.03 | 10 | 1009.9 |
| 20260506125829 | 60 | 166 | 0.0 | 0.0 | 0.03 | 0.03 | 0.03 | 10 | 1009.7 |
| 20260506125255 | 60 | 166 | 1.0 | 0.0 | 0.03 | 0.03 | 0.03 | 10 | 1009.4 |
| 20260506124151 | 60 | 157 | 0.0 | 0.0 | 0.03 | 0.03 | 0.03 | 10 | 1009.1 |
| 20260506123047 | 61 | 156 | 1.0 | 0.0 | 0.02 | 0.02 | 0.02 | 10 | 1009.1 |
| 20260506122513 | 61 | 151 | 0.0 | 0.0 | 0.02 | 0.02 | 0.02 | 10 | 1008.9 |
| 20260506121939 | 61 | 159 | 1.0 | 0.0 | 0.02 | 0.02 | 0.02 | 99 | 1009.3 |
| 20260506121405 | 61 | 139 | 1.0 | 0.0 | 0.02 | 0.02 | 0.02 | 98 | 1009.4 |
| 20260506120831 | 62 | 189 | 1.0 | 0.0 | 0.01 | 0.01 | 0.01 | 98 | 1009.4 |
| 20260506120257 | 62 | 215 | 2.0 | 0.0 | 0.00 | 0.00 | 0.00 | 96 | 1009.6 |
| 20260506115723 | 62 | 166 | 2.0 | 0.0 | 0.00 | 0.00 | 0.00 | 95 | 1009.6 |
| 20260506115149 | 62 | 165 | 1.0 | 0.0 | 0.00 | 0.00 | 0.00 | 94 | 1009.6 |
| 20260506114614 | 63 | 206 | 1.0 | 0.0 | 0.00 | 0.00 | 0.00 | 93 | 1009.5 |
| 20260506114040 | 63 | 210 | 1.0 | 0.0 | 0.00 | 0.00 | 0.00 | 92 | 1009.4 |
| 20260506113507 | 63 | 255 | 0.0 | 0.0 | 0.00 | 0.00 | 0.00 | 91 | 1009.4 |
| 20260506112932 | 63 | 184 | 1.0 | 0.0 | 0.00 | 0.00 | 0.00 | 90 | 1009.4 |
| 20260506111258 | 64 | 228 | 1.0 | 0.0 | 0.00 | 0.00 | 0.00 | 89 | 1009.0 |
| 20260506110154 | 64 | 195 | 1.0 | 0.0 | 0.00 | 0.00 | 0.00 | 88 | 1008.8 |
| 20260506105050 | 64 | 141 | 1.0 | 0.0 | 0.00 | 0.00 | 0.00 | 87 | 1008.9 |
| 20260506104516 | 64 | 174 | 1.0 | 0.0 | 0.00 | 0.00 | 0.00 | 87 | 1008.8 |
| 20260506103942 | 64 | 233 | 2.0 | 0.0 | 0.00 | 0.00 | 0.00 | 87 | 1008.7 |
| 20260506102838 | 64 | 231 | 2.0 | 0.0 | 0.00 | 0.00 | 0.00 | 86 | 1008.7 |
| 20260506102305 | 64 | 159 | 1.0 | 0.0 | 0.00 | 0.00 | 0.00 | 85 | 1008.7 |
| 20260506101200 | 65 | 180 | 1.0 | 0.0 | 0.00 | 0.00 | 0.00 | 85 | 1008.6 |
| 20260506100626 | 65 | 159 | 1.0 | 0.0 | 0.00 | 0.00 | 0.00 | 85 | 1008.5 |
| 20260506100052 | 65 | 158 | 2.0 | 0.0 | 0.00 | 0.00 | 0.00 | 84 | 1008.5 |
| 20260506095518 | 65 | 183 | 2.0 | 0.0 | 0.00 | 0.00 | 0.00 | 84 | 1008.4 |
| 20260506094944 | 65 | 177 | 2.0 | 0.0 | 0.00 | 0.00 | 0.00 | 84 | 1008.5 |
| 20260506093840 | 65 | 202 | 3.0 | 0.0 | 0.00 | 0.00 | 0.00 | 84 | 1008.6 |
| 20260506093305 | 65 | 262 | 3.0 | 0.0 | 0.00 | 0.00 | 0.00 | 83 | 1008.5 |
| 20260506092731 | 65 | 156 | 1.0 | 0.0 | 0.00 | 0.00 | 0.00 | 83 | 1008.6 |
| 20260506092157 | 65 | 168 | 1.0 | 0.0 | 0.00 | 0.00 | 0.00 | 83 | 1008.6 |
| 20260506091053 | 65 | 210 | 2.0 | 0.0 | 0.00 | 0.00 | 0.00 | 82 | 1008.6 |
| 20260506085949 | 66 | 157 | 3.0 | 0.0 | 0.00 | 0.00 | 0.00 | 82 | 1008.8 |
| 20260506084845 | 66 | 206 | 2.0 | 0.0 | 0.00 | 0.00 | 0.00 | 81 | 1008.8 |
| 20260506083211 | 66 | 177 | 1.0 | 0.0 | 0.00 | 0.00 | 0.00 | 80 | 1008.8 |
| 20260506082637 | 67 | 199 | 2.0 | 0.0 | 0.00 | 0.00 | 0.00 | 79 | 1008.7 |
| 20260506082103 | 67 | 160 | 1.0 | 0.0 | 0.00 | 0.00 | 0.00 | 79 | 1008.8 |
| 20260506080958 | 67 | 231 | 2.0 | 0.0 | 0.00 | 0.00 | 0.00 | 79 | 1008.8 |
| 20260506080425 | 67 | 198 | 2.0 | 0.0 | 0.00 | 0.00 | 0.00 | 78 | 1008.9 |
| 20260506072542 | 68 | 160 | 1.0 | 0.0 | 0.00 | 0.00 | 0.00 | 77 | 1008.7 |
| 20260506072008 | 68 | 171 | 1.0 | 0.0 | 0.00 | 0.00 | 0.00 | 76 | 1008.8 |
| 20260506070904 | 68 | 181 | 3.0 | 0.0 | 0.00 | 0.00 | 0.00 | 75 | 1008.9 |
| 20260506070330 | 68 | 199 | 3.0 | 0.0 | 0.00 | 0.00 | 0.00 | 75 | 1009.1 |
| 20260506062436 | 69 | 179 | 2.0 | 0.0 | 0.00 | 0.00 | 0.00 | 73 | 1009.4 |
| 20260506061902 | 69 | 189 | 2.0 | 0.0 | 0.00 | 0.00 | 0.00 | 73 | 1009.5 |
| 20260506061328 | 70 | 154 | 2.0 | 0.0 | 0.00 | 0.00 | 0.00 | 73 | 1009.4 |
| 20260506060754 | 70 | 179 | 2.0 | 0.0 | 0.00 | 0.00 | 0.00 | 72 | 1009.4 |
| 20260506051226 | 71 | 168 | 2.0 | 0.0 | 0.00 | 0.00 | 0.00 | 69 | 1009.7 |
| 20260506050652 | 71 | 174 | 3.0 | 0.0 | 0.00 | 0.00 | 0.00 | 69 | 1009.7 |
| 20260506050117 | 71 | 220 | 2.0 | 0.0 | 0.00 | 0.00 | 0.00 | 69 | 1009.7 |
| 20260506045010 | 71 | 185 | 2.0 | 0.0 | 0.00 | 0.00 | 0.00 | 69 | 1009.8 |
| 20260506043905 | 71 | 167 | 3.0 | 0.0 | 0.00 | 0.00 | 0.00 | 68 | 1009.8 |